This demonstration page uses our WeatherBlox Daily Observations layout. Learn more.

Hourly Observations for July 4, 2019

Temp ( °F °C ) Dew Point ( °F °C ) Humidity (%) Winds ( mph kmh ) Pressure ( in mb ) Visibility ( mi km ) Precip ( " mm )
12:15 am 00:15 Clear 75 24 72 22 89 89 Calm 29.97 1015 10 16.09344 0 0
12:35 am 00:35 Clear 77 25 72 22 83 83 Calm 29.97 1015 10 16.09344 0 0
12:55 am 00:55 Clear 75 24 72 22 89 89 Calm 29.97 1015 10 16.09344 0 0
1:15 am 01:15 Clear 77 25 72 22 83 83 Calm 29.97 1015 10 16.09344 0 0
1:35 am 01:35 Clear 77 25 72 22 83 83 Calm 29.97 1015 10 16.09344 0 0
1:55 am 01:55 Clear 75 24 72 22 89 89 Calm 29.97 1015 10 16.09344 0 0
2:15 am 02:15 Clear 75 24 72 22 89 89 Calm 29.97 1015 10 16.09344 0 0
2:35 am 02:35 Clear 73 23 72 22 94 94 Calm 29.97 1015 10 16.09344 0 0
2:55 am 02:55 Clear 73 23 72 22 94 94 Calm 29.97 1015 10 16.09344 0 0
3:15 am 03:15 Clear 73 23 72 22 94 94 Calm 29.97 1015 10 16.09344 0 0
3:35 am 03:35 Clear 73 23 72 22 94 94 Calm 30 1016 10 16.09344 0 0
3:55 am 03:55 Clear 72 22 72 22 100 100 Calm 30 1016 10 16.09344 0 0
4:15 am 04:15 Clear 72 22 72 22 100 100 WNW 3 6 30 1016 10 16.09344 0 0
4:35 am 04:35 Clear 72 22 72 22 100 100 Calm 30 1016 10 16.09344 0 0
4:55 am 04:55 Clear 72 22 72 22 100 100 W 3 6 30 1016 10 16.09344 0 0
5:15 am 05:15 Clear 72 22 72 22 100 100 Calm 30 1016 10 16.09344 0 0
5:35 am 05:35 Clear 72 22 72 22 100 100 NW 3 6 30 1016 10 16.09344 0 0
5:55 am 05:55 Partly Cloudy 72 22 72 22 100 100 N 3 6 30.03 1017 10 16.09344 0 0
6:15 am 06:15 Partly Cloudy 72 22 72 22 100 100 Calm 30.03 1017 10 16.09344 0 0
6:35 am 06:35 Partly Cloudy 73 23 72 22 94 94 ENE 3 6 30.03 1017 10 16.09344 0 0
6:55 am 06:55 Partly Cloudy 73 23 72 22 94 94 NE 3 6 30.03 1017 10 16.09344 0 0
7:15 am 07:15 Mostly Cloudy 73 23 72 22 94 94 NNE 3 6 30.03 1017 10 16.09344 0 0
7:35 am 07:35 Partly Cloudy 73 23 72 22 94 94 NNE 3 6 30.06 1018 10 16.09344 0 0
7:55 am 07:55 Mostly Cloudy 73 23 72 22 94 94 NNE 5 7 30.06 1018 10 16.09344 0 0
8:15 am 08:15 Partly Cloudy 73 23 72 22 94 94 NE 6 9 30.06 1018 10 16.09344 0 0
8:35 am 08:35 Sunny 75 24 72 22 89 89 NE 3 6 30.06 1018 10 16.09344 0 0
8:55 am 08:55 Sunny 77 25 72 22 83 83 Calm 30.06 1018 10 16.09344 0 0
9:15 am 09:15 Sunny 77 25 73 23 89 89 N 5 7 30.06 1018 10 16.09344 0 0
9:35 am 09:35 Sunny 79 26 73 23 84 84 Calm 30.06 1018 10 16.09344 0 0
9:55 am 09:55 Sunny 81 27 73 23 79 79 ENE 5 7 30.06 1018 10 16.09344 0 0
10:15 am 10:15 Mostly Cloudy 81 27 73 23 79 79 Calm 30.06 1018 10 16.09344 0 0
10:55 am 10:55 Sunny 84 29 75 24 74 74 Calm 30.06 1018 10 16.09344 0 0
11:15 am 11:15 Partly Cloudy 86 30 73 23 66 66 ESE 7 11 30.06 1018 10 16.09344 0 0
11:35 am 11:35 Mostly Cloudy 86 30 75 24 70 70 Calm 30.06 1018 10 16.09344 0 0
11:55 am 11:55 Mostly Cloudy 88 31 75 24 66 66 SSW 3 6 30.03 1017 10 16.09344 0 0
12:15 pm 12:15 Partly Cloudy 90 32 75 24 63 63 S 8 13 30.03 1017 10 16.09344 0 0
12:35 pm 12:35 Mostly Cloudy 88 31 77 25 70 70 SW 6 9 30.03 1017 10 16.09344 0 0
12:55 pm 12:55 Partly Cloudy with Nearby Thunderstorms 90 32 77 25 67 67 S 7 11 30.03 1017 10 16.09344 0 0
1:15 pm 13:15 Sunny with Nearby Thunderstorms 91 33 77 25 63 63 SW 7 11 30.03 1017 10 16.09344 0 0
1:35 pm 13:35 Partly Cloudy with Nearby Thunderstorms 91 33 75 24 59 59 S 5 7 30.03 1017 10 16.09344 0 0
1:55 pm 13:55 Mostly Cloudy 91 33 75 24 59 59 S 3 6 30 1016 10 16.09344 0 0
2:15 pm 14:15 Partly Cloudy 91 33 75 24 59 59 NE 6 9 30 1016 10 16.09344 0 0
2:55 pm 14:55 Cloudy with Thunderstorms 82 28 75 24 79 79 NE 14 22 30.03 1017 7 11.265408 0 0
3:15 pm 15:15 Cloudy with Thunderstorms 79 26 75 24 89 89 NE 7 11 30.03 1017 5 8.04672 0 0
3:35 pm 15:35 Mostly Cloudy with Thunderstorms 75 24 73 23 94 94 ENE 9 15 30.03 1017 7 11.265408 0.02 0.508
3:55 pm 15:55 Mostly Cloudy 75 24 73 23 94 94 ESE 9 15 30.03 1017 10 16.09344 0.02 0.508
4:15 pm 16:15 Cloudy 77 25 73 23 89 89 ENE 3 6 30.03 1017 10 16.09344 0 0
4:35 pm 16:35 Cloudy 77 25 73 23 89 89 E 5 7 30.03 1017 10 16.09344 0 0
4:55 pm 16:55 Cloudy 77 25 75 24 94 94 E 7 11 30.03 1017 10 16.09344 0 0
5:15 pm 17:15 Cloudy 75 24 73 23 94 94 ENE 6 9 30.03 1017 10 16.09344 0 0
5:35 pm 17:35 Cloudy with Nearby Thunderstorms 77 25 75 24 94 94 ESE 7 11 30.03 1017 10 16.09344 0 0
5:55 pm 17:55 Mostly Cloudy with Nearby Thunderstorms 77 25 75 24 94 94 ESE 8 13 30.06 1018 10 16.09344 0 0
6:15 pm 18:15 Mostly Cloudy 79 26 73 23 84 84 SE 8 13 30.06 1018 10 16.09344 0 0
6:35 pm 18:35 Mostly Cloudy 79 26 73 23 84 84 ESE 7 11 30.06 1018 10 16.09344 0 0
6:55 pm 18:55 Partly Cloudy 79 26 73 23 84 84 SSE 3 6 30.06 1018 10 16.09344 0 0
7:15 pm 19:15 Mostly Cloudy 79 26 73 23 84 84 SW 7 11 30.09 1019 10 16.09344 0 0
7:35 pm 19:35 Cloudy 77 25 73 23 89 89 S 5 7 30.09 1019 10 16.09344 0 0
7:55 pm 19:55 Cloudy with Nearby Thunderstorms 77 25 73 23 89 89 SW 3 6 30.09 1019 1.25 2.01168 0.16 4.064
8:15 pm 20:15 Mostly Cloudy with Nearby Thunderstorms 75 24 73 23 94 94 SE 6 9 30.09 1019 10 16.09344 0 0
8:35 pm 20:35 Mostly Cloudy 73 23 73 23 100 100 E 7 11 30.09 1019 10 16.09344 0 0
8:55 pm 20:55 Partly Cloudy 72 22 72 22 100 100 ESE 6 9 30.09 1019 10 16.09344 0 0
9:15 pm 21:15 Clear 73 23 73 23 100 100 S 3 6 30.09 1019 10 16.09344 0 0
9:35 pm 21:35 Clear 73 23 73 23 100 100 S 3 6 30.09 1019 7 11.265408 0 0
9:55 pm 21:55 Clear 72 22 72 22 100 100 SW 5 7 30.09 1019 5 8.04672 0 0
10:15 pm 22:15 Clear 72 22 72 22 100 100 Calm 30.12 1020 4 6.437376 0 0
10:35 pm 22:35 Clear 72 22 72 22 100 100 Calm 30.12 1020 4 6.437376 0 0
10:55 pm 22:55 Clear 72 22 72 22 100 100 Calm 30.12 1020 3 4.828032 0 0
11:15 pm 23:15 Clear 72 22 72 22 100 100 Calm 30.12 1020 4 6.437376 0 0
11:35 pm 23:35 Mostly Cloudy 72 22 72 22 100 100 Calm 30.12 1020 1.75 2.816352 0 0
11:55 pm 23:55 Mostly Cloudy 72 22 72 22 100 100 ENE 3 6 30.12 1020 2 3.218688 0 0

Powered by AerisWeather